Regional Weather Roundup
Issued by NWS

Home | Current Version | Previous Version | Graphics & Text | Print | Product List | Glossary On
Versions: 1 2 3 4 5 6 7 8 9 10 11 12 13 14 15 16 17 18 19 20 21 22 23 24 25 26 27 28 29 30 31 32 33 34 35 36 37 38 39 40 41 42 43 44 45 46 47 48 49 50
000
ASUS43 KMPX 260510
RWRMN
WEATHER ROUNDUP FOR MINNESOTA
NATIONAL WEATHER SERVICE TWIN CITIES/CHANHASSEN MN
1100 PM CST TUE NOV 25 2014


NOTE: "FAIR" INDICATES FEW OR NO CLOUDS BELOW 12,000 FEET WITH NO
SIGNIFICANT WEATHER AND/OR OBSTRUCTIONS TO VISIBILITY. N/A MEANS
CURRENT SKY AND/OR WEATHER CONDITIONS ARE NOT AVAILABLE.

MNZ060>063-068>070-260600-
   Twin Cities Metro

CITY           SKY/WX    TMP DP  RH WIND       PRES   REMARKS
TWIN CITIES    CLOUDY    24  15  68 SE8       30.03F WCI  15
ST PAUL        CLOUDY    25  17  72 SE9       30.05F WCI  15
CRYSTAL        CLOUDY    26  16  65 SE7       30.02S WCI  18
BLAINE         CLOUDY    27  19  74 SE5       30.02F WCI  21
LAKEVILLE      CLOUDY    21  18  86 E6        30.02S WCI  14
EDEN PRAIRIE   CLOUDY    25  16  68 E6        30.00F WCI  18
SOUTH ST PAUL  CLOUDY    26  17  68 SE3       30.04F
LAKE ELMO      CLOUDY    27  18  69 SE5       30.05F WCI  21
$$
MNZ001>005-007-008-013>017-022>024-027-028-260600-
   Northwest Minnesota

CITY           SKY/WX    TMP DP  RH WIND       PRES   REMARKS
BEMIDJI        CLOUDY    19  14  79 SE3       30.01R
HALLOCK        PTCLDY     9   3  78 N13       30.16R WCI  -7
ROSEAU         FLURRIES  12   9  85 N10       30.11R WCI  -1
WARROAD        LGT SNOW  12   9  85 N7        30.11R WCI   2
THIEF RVR FALL CLOUDY    16  10  79 N16       30.08R WCI   0
CROOKSTON      LGT SNOW  16  12  86 N14       30.10R WCI   1
FOSSTON        LGT SNOW  18  14  86 N7        30.03R WCI   8
DETROIT LAKES  MIX PCPN  21  14  73 E6        30.00R WCI  14
MOORHEAD       LGT RAIN  23  23 100 NE9       30.03R WCI  13
PARK RAPIDS    CLOUDY    18   8  65 E5        30.00R WCI  11
MAHNOMEN       LGT SNOW  21  18  88 CALM      30.01R
$$
MNZ006-009>011-018-025>026-260600-
   North Central Minnesota

CITY           SKY/WX    TMP DP  RH WIND       PRES   REMARKS
BAUDETTE       LGT SNOW  14  10  84 N8        30.07R FOG     WCI   3
FLAG ISLAND    LGT SNOW  10   9  92 N12       30.10R WCI  -4
INTL FALLS     LGT SNOW  16  10  77 N3        30.05R
WASKISH        CLOUDY    18  14  86 CALM      30.05R
BIG FORK       CLOUDY    19   9  63 CALM      30.03S
LONGVILLE      CLOUDY    18  10  73 CALM      30.04R
GRAND RAPIDS   CLOUDY    18   9  68 CALM      30.03R
CRANE LAKE     CLOUDY     9   7  92 CALM      30.08R
ORR            CLOUDY    14  10  85 CALM      30.02R
COOK           CLOUDY    16  10  79 CALM      30.04R
WALKER         CLOUDY    19   8  62 SE3       30.02R
$$
MNZ012-019>021-037-260600-
   Northeast Minnesota

CITY           SKY/WX    TMP DP  RH WIND       PRES   REMARKS
DULUTH         CLOUDY    18  11  74 SW5       30.03R WCI  11
ELY            PTCLDY     1  -2  85 CALM      30.03R
HIBBING        CLOUDY    19   7  59 CALM      30.03R
EVELETH        CLOUDY    19   9  63 W3        30.04R
DULUTH HARBOR  CLOUDY    21  14  73 CALM      30.10R
TWO HARBORS    MOCLDY    18   9  68 NW5       30.04R WCI  11
SILVER BAY     PTCLDY    10   7  85 CALM      30.04R
GRAND MARAIS     N/A     19   4  51 N8        30.07R WCI   9
G MARAIS ARPRT PTCLDY     7   1  78 NW5       30.00R WCI  -2
$$
MNZ029>031-032-039>041-046>048-054>057-064-260600-
   West Central Minnesota

CITY           SKY/WX    TMP DP  RH WIND       PRES   REMARKS
FERGUS FALLS   CLOUDY    21  12  68 E12       29.99R WCI   9
WHEATON        CLOUDY    21  18  86 NE7       29.95R WCI  13
MORRIS         CLOUDY    25  18  74 E13       29.90S WCI  13
ALEXANDRIA     CLOUDY    21  13  71 E10       29.95R WCI  10
ELBOW LAKE       N/A     22  14  73 E10G16    29.94R WCI  11
WADENA         CLOUDY    18  10  73 NE7       29.99R WCI   8
GLENWOOD       MOCLDY    21  16  79 E10       29.94S WCI  10
APPLETON       CLOUDY    27  19  74 E10       29.90S WCI  17
BENSON         CLOUDY    27  18  69 SE12      29.91F WCI  16
ORTONVILLE     CLOUDY    27  18  69 SE10      29.88S WCI  17
MADISON        LGT SNOW  30  27  86 SE12      29.89S WCI  21
WILLMAR        FAIR      27  18  69 SE15      29.94S WCI  15
$$
MNZ033>034-036-042>043-049>051-058-059-260600-
   Central Minnesota

CITY           SKY/WX    TMP DP  RH WIND       PRES   REMARKS
ST CLOUD       CLOUDY    23  14  68 E5        29.99S WCI  17
SAUK CENTRE    CLOUDY    21  14  74 E8        29.96S WCI  11
PAYNESVILLE    CLOUDY    20  14  76 NE7       29.96S WCI  12
AITKIN         CLOUDY    19  12  73 CALM      30.02R
PINE RIVER     CLOUDY    19   9  63 NE3       30.05R
BRAINERD       CLOUDY    18   9  68 NE3       30.02R
STAPLES        CLOUDY    18   9  68 E3        29.99S
LONG PRAIRIE   CLOUDY    19  12  73 NE6       29.97S WCI  11
LITTLE FALLS   CLOUDY    21  12  68 E3        30.01R
LITCHFIELD     CLOUDY    25  19  80 SE9       29.96S WCI  15
BUFFALO        CLOUDY    25  16  69 E7        30.01S WCI  17
MAPLE LAKE     CLOUDY    26  18  73 E5        30.00S WCI  20
$$
MNZ037-044-045-052-053-260600-
   East Central Minnesota

CITY           SKY/WX    TMP DP  RH WIND       PRES   REMARKS
PRINCETON      CLOUDY    23  18  80 CALM      30.01S
MORA           CLOUDY    19  14  79 E3        30.05S
CAMBRIDGE      CLOUDY    25  16  68 E3        30.02R
RUSH CITY      CLOUDY    21  16  79 E3        30.05R
MOOSE LAKE     CLOUDY    19  14  79 CALM      30.04S
HINCKLEY       CLOUDY    21  16  79 CALM      30.06R
CLOQUET        CLOUDY    18  10  73 CALM      30.04S
MCGREGOR       CLOUDY    19  14  79 CALM      30.05R
$$
MNZ071>073-080-081-089-090-097-098-260600-
   Southwest Minnesota

CITY           SKY/WX    TMP DP  RH WIND       PRES   REMARKS
MONTEVIDEO     CLOUDY    25  19  80 S9        29.91S WCI  15
GRANITE FALLS  CLOUDY    27  19  73 SE9       29.92S WCI  17
CANBY          LGT SNOW  28  26  89 E8        29.87F WCI  20
MARSHALL       CLOUDY    28  21  74 SE13      29.88S WCI  18
REDWOOD FALLS  CLOUDY    28  18  66 SE10      29.93R WCI  19
OLIVIA         CLOUDY    28  19  69 SE14      29.92F WCI  17
PIPESTONE      LGT SNOW  28  27  93 S13       29.81F WCI  18
WINDOM         FLURRIES  28  21  74 SE9       29.90S WCI  20
WORTHINGTON    CLOUDY    28  23  80 SE13G18   29.87S WCI  18
JACKSON        CLOUDY    30  18  59 SE12      29.90F WCI  21
TRACY          LGT SNOW  30  24  80 SE10      29.88S WCI  21
SLAYTON        LGT SNOW  28  27  96 SE10      29.86F WCI  18
$$
MNZ065>067-074>077-082>085-091>093-260600-
   South Central Minnesota

CITY           SKY/WX    TMP DP  RH WIND       PRES   REMARKS
MANKATO        CLOUDY    25  14  63 SE13      29.97F WCI  13
NEW ULM        CLOUDY    25  18  74 SE10G17   29.95S WCI  15
ST JAMES       CLOUDY    28  21  74 SE14      29.95S WCI  17
FAIRMONT       CLOUDY    27  16  63 SE15      29.93F WCI  15
GLENCOE        CLOUDY    26  20  79 SE8       29.97F WCI  17
FARIBAULT      MOCLDY    23  18  80 SE6       30.01F WCI  16
OWATONNA       CLOUDY    23  16  74 SE10      30.00S WCI  12
WASECA         MOCLDY    21  14  73 SE10      30.01S WCI  10
ALBERT LEA     MOCLDY    21  18  86 SE13      29.99F WCI   9
$$
MNZ078>079-086>088-094>096-260600-
   Southeast Minnesota

CITY           SKY/WX    TMP DP  RH WIND       PRES   REMARKS
ROCHESTER      CLOUDY    19  13  77 SE13      30.03F WCI   6
RED WING       CLOUDY    25  12  58 SE5       30.06F WCI  19
STANTON        CLOUDY    25  17  69 SE5       30.02F WCI  20
DODGE CENTER   MOCLDY    19  16  86 SE9       30.01S WCI   9
WINONA         CLOUDY    21  14  73 SE6       30.10F WCI  14
AUSTIN         MOCLDY    21  16  79 S7        30.02S WCI  13
PRESTON        MOCLDY    15  11  86 SE5       30.05S WCI   7
$$
ABBREVIATIONS USED IN REMARKS
   TC - TEMPERATURES IN CELSIUS
  WCI - WIND CHILL INDEX
   HX - HEAT INDEX
  VSB - VISIBILITY
$$



USA.gov is the U.S. government's official web portal to all federal, state and local government web resources and services.